Index of /ubuntu/pool/universe/m

[ICO]NameLast modifiedSize

[PARENTDIR]Parent Directory  -
[DIR]moblin-menus/2009-12-05 23:04 -
[DIR]mova/2011-09-15 14:01 -
[DIR]movixmaker-2/2011-09-20 05:40 -
[DIR]msnlib/2012-01-09 11:04 -
[DIR]multipartposthandler/2012-01-09 11:04 -
[DIR]modello-maven-plugin1.4/2012-01-09 16:34 -
[DIR]magictouch/2012-02-05 22:33 -
[DIR]mttroff/2012-02-18 18:33 -
[DIR]multitet/2012-02-18 19:03 -
[DIR]mboxcheck/2012-05-01 11:04 -
[DIR]mysql-mmm/2012-05-01 11:35 -
[DIR]munin-plugins-openstack/2012-07-02 16:04 -
[DIR]mythbuntu-diskless/2012-08-02 15:04 -
[DIR]mythnettv/2014-01-27 17:04 -
[DIR]memphis/2014-02-19 10:08 -
[DIR]mic2/2014-02-19 10:28 -
[DIR]maas-test/2014-04-10 18:42 -
[DIR]mate-dialogs/2014-05-21 12:37 -
[DIR]mythbuntu-lightdm-theme/2015-04-26 12:10 -
[DIR]monogame/2015-04-27 15:55 -
[DIR]mirror.js/2015-04-27 15:55 -
[DIR]mana/2015-04-27 15:55 -
[DIR]memoise/2015-04-28 17:59 -
[DIR]media-ctl/2015-04-28 17:59 -
[DIR]mate-doc-utils/2015-04-28 17:59 -
[DIR]maliit-plugins/2015-04-28 17:59 -
[DIR]mediascanner/2015-04-28 18:03 -
[DIR]mythbuntu-gdm-theme/2015-04-30 13:19 -
[DIR]musiclibrarian/2015-04-30 13:19 -
[DIR]mozart-stdlib/2015-04-30 13:19 -
[DIR]moodle-debian-edu-theme/2015-04-30 13:19 -
[DIR]minirok/2015-04-30 13:19 -
[DIR]mingw32-runtime/2015-04-30 13:19 -
[DIR]mgm/2015-04-30 13:19 -
[DIR]mffm-timecode/2015-04-30 13:19 -
[DIR]malbolge/2015-04-30 13:19 -
[DIR]mailplate/2015-04-30 13:19 -
[DIR]macchanger-gtk/2015-04-30 13:19 -
[DIR]metainit/2015-04-30 13:21 -
[DIR]mnemosyne-blog/2015-06-15 05:23 -
[DIR]modello1.4/2015-07-13 18:16 -
[DIR]maven-compiler-plugin-2.5/2015-07-26 06:14 -
[DIR]mopidy-youtube/2015-08-09 06:18 -
[DIR]mopidy-podcast-gpodder/2015-10-24 10:30 -
[DIR]maven-ant-tasks/2015-11-17 05:44 -
[DIR]mango-lassi/2015-12-04 10:31 -
[DIR]mod-authnz-persona/2015-12-04 11:26 -
[DIR]msgpack/2015-12-04 11:56 -
[DIR]musique/2015-12-04 11:56 -
[DIR]mangonel/2015-12-05 01:05 -
[DIR]mariadb-client-lgpl/2015-12-05 01:05 -
[DIR]mmsd/2015-12-05 01:47 -
[DIR]mnemonicode/2015-12-05 01:47 -
[DIR]mooproxy/2015-12-05 01:47 -
[DIR]music-hub/2015-12-05 01:47 -
[DIR]maptransfer/2015-12-13 23:49 -
[DIR]myghty/2015-12-13 23:49 -
[DIR]mate-accountsdialog/2015-12-28 14:14 -
[DIR]mailping/2016-01-17 16:39 -
[DIR]mmtk/2016-02-11 19:00 -
[DIR]modestmaps-js/2016-05-06 23:24 -
[DIR]minetest-mod-mobf/2016-06-12 23:34 -
[DIR]mauve/2016-10-31 12:14 -
[DIR]myghtyutils/2016-10-31 12:45 -
[DIR]micro-proxy/2016-10-31 12:45 -
[DIR]makejvf/2016-10-31 12:45 -
[DIR]minit/2016-10-31 13:22 -
[DIR]mythnettv-gui/2016-11-01 01:06 -
[DIR]multiget/2016-11-01 01:06 -
[DIR]mtpfs/2016-11-01 01:06 -
[DIR]mrtg-rrd/2016-11-01 01:06 -
[DIR]mpage/2016-11-01 01:07 -
[DIR]mozart/2016-11-01 01:07 -
[DIR]monkeytail/2016-11-01 01:07 -
[DIR]mixal/2016-11-01 01:07 -
[DIR]memaker/2016-11-01 01:07 -
[DIR]mce-dev/2016-11-01 01:07 -
[DIR]manpages-es/2016-11-01 01:07 -
[DIR]mach/2016-11-01 01:07 -
[DIR]mod-spamhaus/2016-11-01 01:14 -
[DIR]mythbuntu-log-grabber/2016-11-01 08:06 -
[DIR]mythbuntu-lirc-generator/2016-11-01 08:06 -
[DIR]mysql-proxy/2016-11-01 08:06 -
[DIR]msn-pecan/2016-11-01 08:06 -
[DIR]mr/2016-11-01 08:06 -
[DIR]mp/2016-11-01 08:06 -
[DIR]movabletype-opensource/2016-11-01 08:06 -
[DIR]monodevelop-debugger-gdb/2016-11-01 08:06 -
[DIR]monobristol/2016-11-01 08:06 -
[DIR]monkey-bubble/2016-11-01 08:06 -
[DIR]mingw32/2016-11-01 08:06 -
[DIR]mingw32-binutils/2016-11-01 08:06 -
[DIR]micro-inetd/2016-11-01 08:06 -
[DIR]md5deep/2016-11-01 08:06 -
[DIR]mathwar/2016-11-01 08:06 -
[DIR]manpages-fr/2016-11-01 08:06 -
[DIR]magicor/2016-11-01 08:06 -
[DIR]mysql-connector-net/2016-11-01 08:11 -
[DIR]myodbc/2016-11-01 08:11 -
[DIR]mono-uia/2016-11-01 08:11 -
[DIR]module-build-cipux/2016-11-01 08:11 -
[DIR]maven-embedder/2016-11-01 08:11 -
[DIR]maven-ear-plugin/2016-11-01 08:11 -
[DIR]maven-docck-plugin/2016-11-01 08:11 -
[DIR]matrixssl/2016-11-01 08:11 -
[DIR]mochikit/2016-11-01 08:12 -
[DIR]mythbuntu-control-centre/2016-11-01 13:09 -
[DIR]mythbuntu-default-settings/2016-11-01 13:09 -
[DIR]muddleftpd/2016-11-01 13:09 -
[DIR]mago/2016-11-01 13:09 -
[DIR]mistelix/2016-11-02 07:12 -
[DIR]mono-reference-assemblies/2016-11-02 12:41 -
[DIR]mozplugger/2016-11-02 12:49 -
[DIR]minetest-mod-animalmaterials/2016-11-02 22:22 -
[DIR]mozjs17/2016-11-03 19:02 -
[DIR]moksha.hub/2017-01-13 05:13 -
[DIR]mendexk/2017-02-20 12:18 -
[DIR]mozvoikko/2017-02-24 06:18 -
[DIR]mythbuntu-bare/2017-04-01 06:15 -
[DIR]migration-assistant/2017-04-06 06:43 -
[DIR]maximus/2017-04-06 06:43 -
[DIR]mod-authn-webid/2017-04-06 06:44 -
[DIR]mensis/2017-06-16 00:17 -
[DIR]maven-file-management/2017-07-19 23:13 -
[DIR]maven-antrun-extended-plugin/2017-07-28 23:23 -
[DIR]munge-maven-plugin/2017-08-01 05:29 -
[DIR]mailman-api/2017-08-24 05:13 -
[DIR]maven-shared-jar/2017-09-07 18:15 -
[DIR]mockobjects/2017-11-02 23:14 -
[DIR]monajat/2017-11-03 01:23 -
[DIR]moxie.js/2017-12-31 05:56 -
[DIR]museek+/2018-01-19 09:22 -
[DIR]msrtool/2018-01-19 09:22 -
[DIR]mopd/2018-01-19 09:22 -
[DIR]monav/2018-01-19 09:22 -
[DIR]medit/2018-01-19 09:22 -
[DIR]me-tv/2018-01-19 09:22 -
[DIR]mailcrypt/2018-01-19 09:22 -
[DIR]minc/2018-01-19 09:24 -
[DIR]mythbuntu-live-autostart/2018-01-22 08:45 -
[DIR]mutt-kz/2018-01-22 08:45 -
[DIR]mumble-django/2018-01-22 08:45 -
[DIR]mtasc/2018-01-22 08:45 -
[DIR]mstflint4/2018-01-22 08:45 -
[DIR]mplayerthumbs/2018-01-22 08:45 -
[DIR]mplayer2/2018-01-22 08:45 -
[DIR]mp3splt-gtk/2018-01-22 08:45 -
[DIR]mozilla-password-editor/2018-01-22 08:45 -
[DIR]morituri/2018-01-22 08:45 -
[DIR]moodle/2018-01-22 08:45 -
[DIR]moodbar/2018-01-22 08:45 -
[DIR]monotone-viz/2018-01-22 08:45 -
[DIR]monodevelop/2018-01-22 08:45 -
[DIR]monodevelop-database/2018-01-22 08:45 -
[DIR]miro/2018-01-22 08:45 -
[DIR]minbar/2018-01-22 08:45 -
[DIR]mediawiki-extensions/2018-01-22 08:45 -
[DIR]mdpress/2018-01-22 08:45 -
[DIR]maven2/2018-01-22 08:45 -
[DIR]mate-netspeed/2018-01-22 08:45 -
[DIR]mysql-5.6/2018-01-22 08:48 -
[DIR]mule/2018-01-22 08:48 -
[DIR]mmpong/2018-01-22 08:48 -
[DIR]maven-stapler-plugin/2018-01-22 08:48 -
[DIR]maven-project-info-reports-plugin/2018-01-22 08:48 -
[DIR]maven-hpi-plugin/2018-01-22 08:48 -
[DIR]mathcomp/2018-01-22 08:48 -
[DIR]mummy/2018-01-22 08:48 -
[DIR]midgard2-core/2018-01-22 08:51 -
[DIR]m17n-db/2018-01-22 18:17 -
[DIR]mythbuntu-common/2018-01-23 08:50 -
[DIR]monotone/2018-01-23 08:50 -
[DIR]mmass/2018-01-23 08:50 -
[DIR]mkdocs-bootswatch/2018-01-23 08:50 -
[DIR]mdbus/2018-01-23 08:50 -
[DIR]mcmcpack/2018-01-23 08:50 -
[DIR]mandelbulber/2018-01-23 08:50 -
[DIR]maitreya/2018-01-23 08:51 -
[DIR]ming/2018-01-23 08:56 -
[DIR]mgrs/2018-01-23 08:57 -
[DIR]mx/2018-01-23 09:11 -
[DIR]memleax/2018-01-31 09:20 -
[DIR]measurement-kit/2018-02-10 00:21 -
[DIR]mkelfimage/2018-04-05 08:04 -
[DIR]mumudvb/2018-04-05 08:04 -
[DIR]mythtvfs-fuse/2018-04-05 09:25 -
[DIR]mxallowd/2018-04-05 09:25 -
[DIR]mlbviewer/2018-04-07 06:15 -
[DIR]mythexport/2018-04-20 01:58 -
[DIR]myspell-hr/2018-04-20 07:58 -
[DIR]musixtex/2018-06-22 15:12 -
[DIR]mock/2018-06-22 15:12 -
[DIR]messaging-app/2018-06-22 15:12 -
[DIR]memcachedb/2018-06-22 15:12 -
[DIR]mediaplayer-app/2018-06-22 15:12 -
[DIR]matita/2018-06-22 15:12 -
[DIR]m-tx/2018-06-22 15:12 -
[DIR]mtp/2018-06-22 15:13 -
[DIR]mp4v2/2018-06-22 15:13 -
[DIR]myrepos/2018-07-26 11:18 -
[DIR]modulator/2018-09-19 17:58 -
[DIR]mason/2018-11-09 11:34 -
[DIR]mokutil/2018-11-22 00:23 -
[DIR]mpj/2019-01-13 17:18 -
[DIR]minify-maven-plugin/2019-01-13 23:18 -
[DIR]mp4parser/2019-01-23 19:12 -
[DIR]meta-gnustep/2019-02-07 08:08 -
[DIR]mariadb-10.0/2019-02-13 06:20 -
[DIR]morfologik-stemming/2019-02-28 07:23 -
[DIR]mavibot/2019-03-09 08:13 -
[DIR]msv/2019-03-09 08:18 -
[DIR]mat/2019-04-05 00:41 -
[DIR]mariadb-5.5/2019-05-25 00:13 -
[DIR]modello-maven-plugin/2019-07-09 13:38 -
[DIR]manpages-pl/2019-08-04 17:24 -
[DIR]mh-e/2019-10-02 00:19 -
[DIR]mercurial-crecord/2019-10-25 22:50 -
[DIR]multex-base/2019-10-25 22:50 -
[DIR]maven-replacer-plugin/2019-10-26 01:54 -
[DIR]mocker/2020-01-11 19:08 -
[DIR]mandrill/2020-01-11 19:08 -
[DIR]moosic/2020-01-11 19:08 -
[DIR]model-builder/2020-01-14 18:40 -
[DIR]mysql-utilities/2020-01-15 00:16 -
[DIR]mopidy-gmusic/2020-01-23 00:19 -
[DIR]mercurial-server/2020-03-30 18:34 -
[DIR]mimms/2020-03-31 18:34 -
[DIR]mpris-remote/2020-03-31 18:34 -
[DIR]ministat/2020-04-02 18:09 -
[DIR]midicsv/2020-04-02 18:09 -
[DIR]mixer.app/2020-04-02 18:09 -
[DIR]mppenc/2020-04-02 18:09 -
[DIR]multitee/2020-04-02 18:23 -
[DIR]mutextrace/2020-04-02 18:23 -
[DIR]minizip/2020-04-02 18:23 -
[DIR]mimelib1/2020-04-03 04:58 -
[DIR]maas-enlist/2020-04-03 09:44 -
[DIR]mergelog/2020-04-03 10:13 -
[DIR]minisat+/2020-04-03 10:14 -
[DIR]mpgtx/2020-04-03 10:28 -
[DIR]msgpuck/2020-04-03 10:43 -
[DIR]myspell/2020-04-03 10:58 -
[DIR]mswatch/2020-04-03 10:58 -
[DIR]mz/2020-04-04 14:23 -
[DIR]mod-proxy-msrpc/2020-04-04 15:08 -
[DIR]mountpy/2020-04-05 07:33 -
[DIR]mod-authz-securepass/2020-04-06 01:28 -
[DIR]mod-gnutls/2020-04-06 01:43 -
[DIR]mousetrap/2020-04-06 03:53 -
[DIR]minbif/2020-04-07 11:08 -
[DIR]miceamaze/2020-04-13 16:53 -
[DIR]metacity-themes/2020-04-27 21:14 -
[DIR]manpages-fr-extra/2020-04-27 21:15 -
[DIR]multistrap/2020-04-27 21:15 -
[DIR]mp3cd/2020-04-27 21:15 -
[DIR]minetest-mod-xdecor/2020-04-28 00:26 -
[DIR]munin-libvirt-plugins/2020-04-28 00:26 -
[DIR]mcron/2020-04-28 01:43 -
[DIR]mpg123-el/2020-05-21 00:14 -
[DIR]mailagent/2020-05-22 03:28 -
[DIR]matchbox/2020-06-23 05:28 -
[DIR]matchbox-common/2020-06-23 05:28 -
[DIR]matchbox-themes-extra/2020-06-23 05:28 -
[DIR]mcu8051ide/2020-07-08 23:24 -
[DIR]mtd-utils/2020-07-10 21:51 -
[DIR]mrxvt/2020-07-10 21:51 -
[DIR]monkeystudio/2020-07-10 21:51 -
[DIR]mon/2020-07-10 21:51 -
[DIR]mon-contrib/2020-07-10 21:51 -
[DIR]molds/2020-07-10 21:51 -
[DIR]mixmaster/2020-07-10 21:51 -
[DIR]mirmon/2020-07-10 21:51 -
[DIR]metaphlan2-data/2020-07-10 21:51 -
[DIR]mediatomb/2020-07-10 21:51 -
[DIR]mcrl2/2020-07-10 21:51 -
[DIR]mcelog/2020-07-10 21:51 -
[DIR]mathpartir/2020-07-10 21:51 -
[DIR]mate-icon-theme-faenza/2020-07-10 21:51 -
[DIR]matchit/2020-07-10 21:51 -
[DIR]maildir-filter/2020-07-10 21:51 -
[DIR]mail-notification/2020-07-10 21:51 -
[DIR]m2ext/2020-07-10 21:51 -
[DIR]mysql-connector-java/2020-07-10 21:51 -
[DIR]mozjs/2020-07-10 21:51 -
[DIR]mozjs38/2020-07-10 21:51 -
[DIR]mozjs24/2020-07-10 21:51 -
[DIR]media-hub/2020-07-10 21:51 -
[DIR]maven2-core/2020-07-10 21:51 -
[DIR]maven-indexer/2020-07-10 21:51 -
[DIR]maven-repository-builder/2020-07-10 21:51 -
[DIR]mojarra/2020-07-10 21:51 -
[DIR]m2vrequantiser/2020-07-12 00:15 -
[DIR]mpi-testsuite/2020-07-13 08:50 -
[DIR]minetest-mod-mobf-core/2020-07-13 08:50 -
[DIR]minetest-mod-advspawning/2020-07-13 08:50 -
[DIR]minetest-mod-animals/2020-07-13 08:50 -
[DIR]mediawiki-math/2020-07-13 08:50 -
[DIR]mecab-naist-jdic/2020-07-13 08:50 -
[DIR]mecab-jumandic/2020-07-13 08:50 -
[DIR]mongo-java-driver/2020-07-13 08:50 -
[DIR]mariadb-connector-c/2020-07-13 08:50 -
[DIR]migrate/2020-07-14 14:43 -
[DIR]mwc/2020-07-14 14:44 -
[DIR]musica/2020-07-14 14:44 -
[DIR]mosquitto-auth-plugin/2020-07-14 14:44 -
[DIR]monkeysign/2020-07-14 14:44 -
[DIR]modestmaps-py/2020-07-14 14:44 -
[DIR]mlbstreamer/2020-07-14 14:44 -
[DIR]mipp/2020-07-14 14:44 -
[DIR]minetest-mod-torches/2020-07-14 14:44 -
[DIR]megadown/2020-07-14 14:44 -
[DIR]mecab-ipadic/2020-07-14 14:44 -
[DIR]mapbox-vector-tile/2020-07-14 14:44 -
[DIR]mono-basic/2020-07-14 14:44 -
[DIR]modello/2020-07-14 14:44 -
[DIR]mingw-ocaml/2020-07-14 14:44 -
[DIR]magithub/2020-07-14 14:44 -
[DIR]mmorph/2020-07-27 18:23 -
[DIR]mpc123/2020-07-28 12:21 -
[DIR]mercantile/2020-08-06 15:43 -
[DIR]mencal/2020-08-15 12:14 -
[DIR]mathjax/2020-08-29 12:14 -
[DIR]mongo-tools/2020-09-14 12:15 -
[DIR]meliae/2020-10-10 00:14 -
[DIR]mimefilter/2020-10-28 23:30 -
[DIR]mkdocs-bootstrap/2020-10-28 23:38 -
[DIR]mpl-scatter-density/2020-10-28 23:43 -
[DIR]morfologik-stemming2/2020-10-29 07:37 -
[DIR]morfessor/2020-10-31 18:15 -
[DIR]misery/2020-11-02 13:43 -
[DIR]mediaelement/2020-11-11 03:03 -
[DIR]message-templ/2020-11-18 05:28 -
[DIR]mhap/2020-11-26 05:23 -
[DIR]melting/2020-11-30 05:24 -
[DIR]multiboot/2020-12-26 23:45 -
[DIR]mootools/2020-12-27 05:25 -
[DIR]myrescue/2020-12-29 23:34 -
[DIR]mypaint-brushes/2020-12-29 23:34 -
[DIR]mxt-app/2020-12-29 23:34 -
[DIR]myhdl/2020-12-29 23:34 -
[DIR]mutatormath/2020-12-29 23:34 -
[DIR]munin-c/2020-12-29 23:34 -
[DIR]multitime/2020-12-29 23:34 -
[DIR]multicat/2020-12-29 23:34 -
[DIR]mudlet/2020-12-29 23:34 -
[DIR]mrtrix/2020-12-29 23:34 -
[DIR]mpqc3/2020-12-29 23:34 -
[DIR]mpdcron/2020-12-29 23:34 -
[DIR]more-itertools/2020-12-29 23:34 -
[DIR]moria/2020-12-29 23:34 -
[DIR]mopidy-local-sqlite/2020-12-29 23:34 -
[DIR]mopidy-mpris/2020-12-29 23:34 -
[DIR]mopidy-scrobbler/2020-12-29 23:34 -
[DIR]mopidy-alsamixer/2020-12-29 23:34 -
[DIR]mopidy-dirble/2020-12-29 23:34 -
[DIR]montage-wrapper/2020-12-29 23:34 -
[DIR]monsterz/2020-12-29 23:34 -
[DIR]mod-gearman/2020-12-29 23:34 -
[DIR]mobyle-programs/2020-12-29 23:34 -
[DIR]mobyle-tutorials/2020-12-29 23:34 -
[DIR]mobyle/2020-12-29 23:34 -
[DIR]moap/2020-12-29 23:34 -
[DIR]mlv-smile/2020-12-29 23:34 -
[DIR]mlmmj/2020-12-29 23:34 -
[DIR]mldemos/2020-12-29 23:34 -
[DIR]mkcue/2020-12-29 23:34 -
[DIR]miredo/2020-12-29 23:34 -
[DIR]missidentify/2020-12-29 23:34 -
[DIR]mikmod/2020-12-29 23:34 -
[DIR]mididings/2020-12-29 23:34 -
[DIR]midori/2020-12-29 23:34 -
[DIR]mgen/2020-12-29 23:34 -
[DIR]memtool/2020-12-29 23:34 -
[DIR]mdns-scan/2020-12-29 23:34 -
[DIR]mdp-src/2020-12-29 23:34 -
[DIR]mdf2iso/2020-12-29 23:34 -
[DIR]maybe/2020-12-29 23:34 -
[DIR]matroxset/2020-12-29 23:34 -
[DIR]martian/2020-12-29 23:34 -
[DIR]marionnet/2020-12-29 23:34 -
[DIR]maq/2020-12-29 23:34 -
[DIR]mapnik-vector-tile/2020-12-29 23:34 -
[DIR]manpages-de/2020-12-29 23:34 -
[DIR]makefs/2020-12-29 23:34 -
[DIR]makehuman/2020-12-29 23:34 -
[DIR]makejail/2020-12-29 23:34 -
[DIR]mairix/2020-12-29 23:34 -
[DIR]makebootfat/2020-12-29 23:34 -
[DIR]magic-wormhole-transit-relay/2020-12-29 23:34 -
[DIR]macchanger/2020-12-29 23:34 -
[DIR]macfanctld/2020-12-29 23:34 -
[DIR]maas/2020-12-29 23:34 -
[DIR]mopac7/2020-12-29 23:34 -
[DIR]modglue/2020-12-29 23:34 -
[DIR]mkl-dnn/2020-12-29 23:34 -
[DIR]minpack/2020-12-29 23:34 -
[DIR]miaviewit/2020-12-29 23:34 -
[DIR]mercator/2020-12-29 23:34 -
[DIR]meep-mpich2/2020-12-29 23:34 -
[DIR]meep-lam4/2020-12-29 23:34 -
[DIR]maxflow/2020-12-29 23:34 -
[DIR]mapbox-wagyu/2020-12-29 23:34 -
[DIR]m17n-im-config/2020-12-29 23:34 -
[DIR]mpfit/2020-12-29 23:34 -
[DIR]meson-mode/2020-12-29 23:34 -
[DIR]mclibs/2020-12-29 23:34 -
[DIR]mocker-el/2020-12-31 17:44 -
[DIR]minlog/2021-01-01 05:24 -
[DIR]mathpiper/2021-01-02 00:22 -
[DIR]magyarispell/2021-01-02 00:22 -
[DIR]mugshot/2021-01-02 06:13 -
[DIR]mono-zeroconf/2021-01-02 06:13 -
[DIR]myspell-el-gr/2021-01-02 06:13 -
[DIR]minetest-mod-worldedit/2021-01-03 00:27 -
[DIR]monafont-ttf/2021-01-03 00:27 -
[DIR]megaglest-data/2021-01-03 05:50 -
[DIR]minetest-mod-intllib/2021-01-03 17:47 -
[DIR]meritous/2021-01-04 00:29 -
[DIR]mon-client/2021-01-04 23:41 -
[DIR]mussh/2021-01-04 23:41 -
[DIR]mono-upnp/2021-01-04 23:41 -
[DIR]messagingmenu-sharp/2021-01-04 23:41 -
[DIR]mess-desktop-entries/2021-01-05 00:06 -
[DIR]msva-perl/2021-01-05 02:13 -
[DIR]m-buffer-el/2021-01-07 00:26 -
[DIR]makepp/2021-01-07 00:26 -
[DIR]math-combinatorics-clojure/2021-01-07 00:26 -
[DIR]math-numeric-tower-clojure/2021-01-07 00:26 -
[DIR]mono-debugger-libs/2021-01-07 00:26 -
[DIR]metrics-clojure/2021-01-07 00:26 -
[DIR]mono-fuse/2021-01-07 00:27 -
[DIR]mussort/2021-01-08 00:43 -
[DIR]micropolis-activity/2021-01-09 12:03 -
[DIR]mithril/2021-01-09 17:30 -
[DIR]mini-httpd-run/2021-01-10 17:28 -
[DIR]mustache-java/2021-01-14 12:22 -
[DIR]morse-x/2021-01-16 05:53 -
[DIR]mblaze/2021-01-16 18:15 -
[DIR]mono.reflection/2021-01-17 23:34 -
[DIR]mopidy-tunein/2021-01-21 12:18 -
[DIR]mypager/2021-01-24 06:14 -
[DIR]monokai-emacs/2021-01-25 11:23 -
[DIR]makey/2021-01-25 11:23 -
[DIR]memdump/2021-02-01 05:48 -
[DIR]metadata-json-lint/2021-02-04 00:18 -
[DIR]monkeysphere/2021-02-04 15:58 -
[DIR]mimetex/2021-02-05 06:09 -
[DIR]moblin-icon-theme/2021-02-05 18:17 -
[DIR]mozjs52/2021-02-05 18:17 -
[DIR]mplayer-blue/2021-02-09 00:18 -
[DIR]moblin-cursor-theme/2021-02-17 18:14 -
[DIR]mrd6/2021-02-17 18:14 -
[DIR]magpierss/2021-02-17 18:14 -
[DIR]man-pages-it/2021-02-18 18:17 -
[DIR]meschach/2021-02-19 00:17 -
[DIR]myspell-sk/2021-02-19 18:43 -
[DIR]masscan/2021-02-21 00:26 -
[DIR]mipe/2021-02-23 06:16 -
[DIR]mcollective-server-provisioner/2021-03-02 23:29 -
[DIR]maven-cache-cleanup/2021-03-05 12:17 -
[DIR]moblin-sound-theme/2021-04-10 06:15 -
[DIR]mysql-5.5/2021-05-04 18:17 -
[DIR]mutt/2021-05-04 18:17 -
[DIR]mariadb-10.1/2021-05-13 00:15 -
[DIR]mongodb/2021-10-06 00:14 -
[DIR]metche/2021-10-19 04:05 -
[DIR]maven-jflex-plugin/2021-10-19 15:52 -
[DIR]mp3rename/2021-10-21 07:30 -
[DIR]mona/2021-10-23 11:39 -
[DIR]mp3val/2021-10-28 12:19 -
[DIR]mckoisqldb/2021-11-01 05:34 -
[DIR]mailman/2021-11-01 11:18 -
[DIR]mallard-rng/2021-12-06 03:04 -
[DIR]minetest-mod-unifieddyes/2021-12-06 06:16 -
[DIR]mailavenger/2021-12-09 00:15 -
[DIR]mallard-ducktype/2021-12-13 17:24 -
[DIR]musescore/2021-12-23 02:57 -
[DIR]mrs/2021-12-23 02:57 -
[DIR]mldonkey/2021-12-23 02:57 -
[DIR]mini-soong/2021-12-23 02:57 -
[DIR]merkleeyes/2021-12-23 02:57 -
[DIR]mdcfg/2021-12-23 02:57 -
[DIR]minimap-el/2021-12-23 02:58 -
[DIR]modus-themes/2021-12-23 02:58 -
[DIR]maelstrom/2022-01-04 00:19 -
[DIR]morsegen/2022-01-19 00:19 -
[DIR]metastudent/2022-01-20 17:29 -
[DIR]moviepy/2022-01-26 12:19 -
[DIR]mysqmail/2022-01-27 11:44 -
[DIR]modplugtools/2022-02-07 18:19 -
[DIR]mmtf-java/2022-02-07 18:19 -
[DIR]metacam/2022-02-23 06:19 -
[DIR]moblin-gtk-engine/2022-03-09 23:33 -
[DIR]mojo-executor/2022-04-30 08:02 -
[DIR]mercurial-keyring/2022-04-30 08:03 -
[DIR]mercurial-extension-utils/2022-04-30 08:03 -
[DIR]mcaller/2022-04-30 08:03 -
[DIR]mmdb/2022-04-30 16:46 -
[DIR]mrtgutils/2022-04-30 17:19 -
[DIR]mm/2022-05-01 11:40 -
[DIR]malaga/2022-05-03 12:19 -
[DIR]moksha.common/2022-05-04 11:30 -
[DIR]mimerender/2022-05-04 11:30 -
[DIR]mrtparse/2022-05-04 11:30 -
[DIR]maven-jaxb2-plugin/2022-05-05 06:19 -
[DIR]mysqltcl/2022-05-06 16:54 -
[DIR]mini18n/2022-05-06 23:39 -
[DIR]mondrian/2022-05-17 17:34 -
[DIR]mopidy-podcast/2022-05-18 17:44 -
[DIR]mopidy-podcast-itunes/2022-05-18 17:44 -
[DIR]mopidy-mpd/2022-05-18 17:44 -
[DIR]mopidy-internetarchive/2022-05-18 17:44 -
[DIR]maven-repo-helper/2022-05-23 17:24 -
[DIR]mockito/2022-05-24 23:24 -
[DIR]munkres/2022-05-26 21:54 -
[DIR]mergedeep/2022-05-29 18:18 -
[DIR]mono-addins/2022-06-14 18:00 -
[DIR]mffm-fftw/2022-06-14 18:01 -
[DIR]matthiasmullie-path-converter/2022-06-14 18:20 -
[DIR]metainf-services/2022-06-21 13:04 -
[DIR]murphy-clojure/2022-06-22 00:28 -
[DIR]makedepf90/2022-06-24 01:44 -
[DIR]mathjax-docs/2022-07-01 05:44 -
[DIR]mbdyn/2022-07-07 01:49 -
[DIR]mlton/2022-07-07 23:04 -
[DIR]materialize/2022-07-08 01:00 -
[DIR]massivethreads/2022-07-09 06:22 -
[DIR]m16c-flash/2022-07-09 17:54 -
[DIR]muon/2022-07-12 14:10 -
[DIR]mmtf-python/2022-07-13 17:24 -
[DIR]mygpoclient/2022-07-22 11:38 -
[DIR]mopidy-beets/2022-07-23 08:03 -
[DIR]monasca-statsd/2022-07-23 08:03 -
[DIR]mobile-atlas-creator/2022-07-23 08:03 -
[DIR]mfcuk/2022-07-23 08:03 -
[DIR]mfoc/2022-07-23 08:03 -
[DIR]metamath-databases/2022-07-23 08:03 -
[DIR]metamath/2022-07-23 08:03 -
[DIR]maven-resolver/2022-07-23 08:03 -
[DIR]matchbox-window-manager/2022-07-23 08:03 -
[DIR]mariadb-10.5/2022-07-24 01:06 -
[DIR]mysql-workbench/2022-07-24 03:42 -
[DIR]myspell-sq/2022-07-24 03:42 -
[DIR]muttprint/2022-07-24 03:42 -
[DIR]musescore-general-soundfont/2022-07-24 03:42 -
[DIR]musescore-general-soundfont-small/2022-07-24 03:42 -
[DIR]multiverse-core/2022-07-24 03:42 -
[DIR]mptp/2022-07-24 03:42 -
[DIR]mpack/2022-07-24 03:42 -
[DIR]mp3blaster/2022-07-24 03:42 -
[DIR]movim/2022-07-24 03:42 -
[DIR]mopidy-local/2022-07-24 03:42 -
[DIR]mopidy-somafm/2022-07-24 03:42 -
[DIR]monitoring-plugins-systemd/2022-07-24 03:42 -
[DIR]mocassin/2022-07-24 03:42 -
[DIR]mnemosyne/2022-07-24 03:42 -
[DIR]mma/2022-07-24 03:42 -
[DIR]mknfonts.tool/2022-07-24 03:42 -
[DIR]mklibs/2022-07-24 03:42 -
[DIR]mkdepend/2022-07-24 03:42 -
[DIR]missfits/2022-07-24 03:42 -
[DIR]misc3d/2022-07-24 03:42 -
[DIR]minetest-mod-lucky-block/2022-07-24 03:42 -
[DIR]minetest-mod-mesecons/2022-07-24 03:42 -
[DIR]minetest-mod-mobs-redo/2022-07-24 03:42 -
[DIR]minetest-mod-moreblocks/2022-07-24 03:42 -
[DIR]minetest-mod-moreores/2022-07-24 03:42 -
[DIR]minetest-mod-pipeworks/2022-07-24 03:42 -
[DIR]minetest-mod-protector/2022-07-24 03:42 -
[DIR]minetest-mod-quartz/2022-07-24 03:42 -
[DIR]minetest-mod-throwing-arrows/2022-07-24 03:42 -
[DIR]minetest-mod-throwing/2022-07-24 03:42 -
[DIR]minetest-mod-unified-inventory/2022-07-24 03:42 -
[DIR]minetest-mod-3d-armor/2022-07-24 03:42 -
[DIR]minetest-mod-basic-materials/2022-07-24 03:42 -
[DIR]minetest-mod-craftguide/2022-07-24 03:42 -
[DIR]minetest-mod-currency/2022-07-24 03:42 -
[DIR]minetest-mod-ethereal/2022-07-24 03:42 -
[DIR]minetest-mod-homedecor/2022-07-24 03:42 -
[DIR]migrationtools/2022-07-24 03:42 -
[DIR]mikmatch/2022-07-24 03:42 -
[DIR]mh-book/2022-07-24 03:42 -
[DIR]metatheme-gilouche/2022-07-24 03:42 -
[DIR]metamonger/2022-07-24 03:42 -
[DIR]metastudent-data-2/2022-07-24 03:42 -
[DIR]metastudent-data/2022-07-24 03:42 -
[DIR]menu-l10n/2022-07-24 03:42 -
[DIR]menu-xdg/2022-07-24 03:42 -
[DIR]mdocml/2022-07-24 03:42 -
[DIR]mdevctl/2022-07-24 03:42 -
[DIR]mbed-test-wrapper/2022-07-24 03:42 -
[DIR]mauve-aligner/2022-07-24 03:42 -
[DIR]materia-gtk-theme/2022-07-24 03:42 -
[DIR]mate-optimus/2022-07-24 03:42 -
[DIR]mate-icon-theme/2022-07-24 03:42 -
[DIR]mate-desktop-environment/2022-07-24 03:42 -
[DIR]mate-common/2022-07-24 03:42 -
[DIR]mate-backgrounds/2022-07-24 03:42 -
[DIR]markupsafe/2022-07-24 03:42 -
[DIR]mariadb-connector-odbc/2022-07-24 03:42 -
[DIR]mapsembler2/2022-07-24 03:42 -
[DIR]mapivi/2022-07-24 03:42 -
[DIR]manpages-es-extra/2022-07-24 03:42 -
[DIR]manpages-hu/2022-07-24 03:42 -
[DIR]makefile2graph/2022-07-24 03:42 -
[DIR]maildirsync/2022-07-24 03:42 -
[DIR]mahimahi/2022-07-24 03:42 -
[DIR]magit-annex/2022-07-24 03:42 -
[DIR]magic/2022-07-24 03:42 -
[DIR]mafft/2022-07-24 03:42 -
[DIR]madness/2022-07-24 03:42 -
[DIR]mac-robber/2022-07-24 03:42 -
[DIR]mailcheck/2022-07-24 06:04 -
[DIR]myspell-lv/2022-08-03 23:54 -
[DIR]mod-wsgi/2022-08-05 18:33 -
[DIR]medialibrary/2022-08-11 18:33 -
[DIR]mapbox-variant/2022-08-14 17:19 -
[DIR]md2term/2022-08-19 18:24 -
[DIR]mediathekview/2022-08-22 00:04 -
[DIR]mozilla-devscripts/2022-08-22 23:34 -
[DIR]makepatch/2022-08-25 23:54 -
[DIR]matrix-mirage/2022-09-17 00:37 -
[DIR]mozjs91/2022-09-17 22:11 -
[DIR]mako/2022-09-21 11:58 -
[DIR]mdk3/2022-10-19 06:04 -
[DIR]micropython-mpremote/2022-10-19 23:14 -
[DIR]mcollective/2022-11-06 04:33 -
[DIR]maven-reporting-api/2022-11-06 04:33 -
[DIR]matrix-sydent/2022-11-06 04:33 -
[DIR]maven-plugin-testing/2022-11-06 04:33 -
[DIR]move-text-el/2022-11-06 05:40 -
[DIR]minetest-mod-infinite-chest/2022-11-06 05:40 -
[DIR]metabat/2022-11-06 05:40 -
[DIR]minetest-mod-skyblock/2022-11-06 05:40 -
[DIR]minetest-mod-maidroid/2022-11-06 07:54 -
[DIR]mdetect/2022-11-06 19:44 -
[DIR]muroar/2022-11-06 19:44 -
[DIR]muroard/2022-11-06 19:44 -
[DIR]mgt/2022-11-06 20:34 -
[DIR]miniasm/2022-11-06 20:34 -
[DIR]minetest-mod-basic-robot-csm/2022-11-06 22:49 -
[DIR]mctc-lib/2022-11-07 16:39 -
[DIR]minisapserver/2022-11-07 18:59 -
[DIR]minetest-mod-character-creator/2022-11-09 05:29 -
[DIR]mozo/2022-11-10 17:39 -
[DIR]mstch/2022-11-12 23:43 -
[DIR]muttprofile/2022-11-14 23:25 -
[DIR]mpdris2/2022-11-15 12:32 -
[DIR]mutrace/2022-11-17 06:38 -
[DIR]mcl/2022-11-17 18:33 -
[DIR]masqmail/2022-11-18 12:04 -
[DIR]macaulay2-jupyter-kernel/2022-11-19 09:54 -
[DIR]maven-archiver/2022-11-19 12:30 -
[DIR]mb2md/2022-11-21 17:40 -
[DIR]membernator/2022-11-22 23:39 -
[DIR]mapdamage/2022-11-24 17:34 -
[DIR]minetest-mod-advmarkers-csm/2022-11-26 12:31 -
[DIR]matplotlib-inline/2022-11-29 12:33 -
[DIR]minetest-mod-meshport/2022-11-30 18:33 -
[DIR]mkgmapgui/2022-12-01 17:54 -
[DIR]mapcode/2022-12-01 18:25 -
[DIR]maqview/2022-12-02 06:31 -
[DIR]mapnik-reference/2022-12-04 11:44 -
[DIR]mummer/2022-12-04 18:14 -
[DIR]markdown/2022-12-04 18:31 -
[DIR]mediawiki-skin-greystuff/2022-12-05 05:39 -
[DIR]mediawiki-extension-youtube/2022-12-05 05:39 -
[DIR]mediawiki-extension-codemirror/2022-12-05 05:39 -
[DIR]matlab2tikz/2022-12-06 00:22 -
[DIR]manpages-zh/2022-12-11 06:40 -
[DIR]maven-parent/2022-12-15 17:44 -
[DIR]mod-vhost-ldap/2022-12-15 21:14 -
[DIR]maven-filtering/2022-12-16 06:29 -
[DIR]maven-resources-plugin/2022-12-16 17:44 -
[DIR]makepasswd/2022-12-19 00:32 -
[DIR]multiplex/2022-12-20 05:57 -
[DIR]modem-cmd/2022-12-20 11:29 -
[DIR]memtester/2022-12-22 00:24 -
[DIR]massxpert/2022-12-22 06:35 -
[DIR]mustang/2022-12-26 07:34 -
[DIR]mytop/2022-12-31 00:36 -
[DIR]mupen64plus/2023-01-02 12:32 -
[DIR]mupen64plus-video-z64/2023-01-02 12:32 -
[DIR]mupen64plus-video-arachnoid/2023-01-02 12:32 -
[DIR]mupen64plus-video-glide64/2023-01-02 12:32 -
[DIR]mupen64plus-ui-console/2023-01-02 12:32 -
[DIR]mupen64plus-rsp-hle/2023-01-02 12:32 -
[DIR]mupen64plus-rsp-z64/2023-01-02 12:32 -
[DIR]mupen64plus-audio-sdl/2023-01-02 12:32 -
[DIR]mk-configure/2023-01-03 00:38 -
[DIR]mlv/2023-01-03 00:44 -
[DIR]mlucas/2023-01-04 12:34 -
[DIR]madbomber/2023-01-06 00:01 -
[DIR]muparserx/2023-01-06 08:25 -
[DIR]mpv.el/2023-01-06 18:31 -
[DIR]misspell-fixer/2023-01-07 05:59 -
[DIR]mhc/2023-01-07 17:29 -
[DIR]mu-cite/2023-01-07 23:29 -
[DIR]mcollective-plugins/2023-01-09 23:09 -
[DIR]maven-dependency-analyzer/2023-01-09 23:34 -
[DIR]maven-invoker/2023-01-09 23:34 -
[DIR]maven-common-artifact-filters/2023-01-09 23:34 -
[DIR]maven-reporting-exec/2023-01-09 23:34 -
[DIR]maven-dependency-tree/2023-01-09 23:34 -
[DIR]meterec/2023-01-10 00:53 -
[DIR]maven-script-interpreter/2023-01-10 05:39 -
[DIR]maven-dependency-plugin/2023-01-10 05:39 -
[DIR]mew/2023-01-10 12:35 -
[DIR]maven-invoker-plugin/2023-01-10 23:29 -
[DIR]maven-shared-io/2023-01-10 23:29 -
[DIR]maven-scm/2023-01-11 00:25 -
[DIR]manpages-pt/2023-01-11 05:50 -
[DIR]maven-antrun-plugin/2023-01-11 17:29 -
[DIR]maven-assembly-plugin/2023-01-12 17:44 -
[DIR]maven-processor-plugin/2023-01-12 23:49 -
[DIR]maven-enforcer/2023-01-12 23:49 -
[DIR]maven-reporting-impl/2023-01-13 18:33 -
[DIR]maven-site-plugin/2023-01-14 00:34 -
[DIR]maven-shade-plugin/2023-01-14 00:34 -
[DIR]maven-compiler-plugin/2023-01-15 00:32 -
[DIR]maven-doxia-tools/2023-01-15 12:04 -
[DIR]mathomatic/2023-01-16 06:31 -
[DIR]manpages-ja/2023-01-16 17:44 -
[DIR]maven-war-plugin/2023-01-17 00:33 -
[DIR]maven-clean-plugin/2023-01-17 00:33 -
[DIR]maven-ejb-plugin/2023-01-17 00:33 -
[DIR]maven-source-plugin/2023-01-17 00:33 -
[DIR]maven-jar-plugin/2023-01-17 06:36 -
[DIR]mypy-protobuf/2023-01-18 11:44 -
[DIR]mustache.js/2023-01-20 18:34 -
[DIR]mriconvert/2023-01-22 12:34 -
[DIR]mimepull/2023-01-25 00:03 -
[DIR]monitoring-plugins-check-logfiles/2023-01-25 06:37 -
[DIR]mew-beta/2023-01-27 06:38 -
[DIR]mailmanclient/2023-01-29 17:49 -
[DIR]manpages-tr/2023-01-30 00:37 -
[DIR]mikutter/2023-01-30 12:33 -
[DIR]maven-mapping/2023-01-31 17:34 -
[DIR]maven-remote-resources-plugin/2023-01-31 17:34 -
[DIR]maven-plugin-tools/2023-02-02 00:38 -
[DIR]mpdtoys/2023-02-05 00:55 -
[DIR]medley-clojure/2023-02-05 00:55 -
[DIR]mupen64plus-input-sdl/2023-02-06 12:35 -
[DIR]mftrace/2023-02-06 18:44 -
[DIR]morse-simulator/2023-02-08 00:37 -
[DIR]mercurial-buildpackage/2023-02-16 06:36 -
[DIR]minisign/2023-02-18 06:36 -
[DIR]microsocks/2023-02-19 18:33 -
[DIR]msxpertsuite/2023-03-05 00:36 -
[DIR]mini-iso-tools/2023-03-07 19:30 -
[DIR]mpdecimal/2023-04-05 01:31 -
[DIR]maven-ant-helper/2023-05-02 01:52 -
[DIR]mopidy-soundcloud/2023-05-02 02:50 -
[DIR]mitmproxy/2023-05-02 02:50 -
[DIR]matomo-component-network/2023-05-09 13:04 -
[DIR]mysql-5.7/2023-05-09 18:28 -
[DIR]mit-scheme/2023-05-16 14:54 -
[DIR]mps-youtube/2023-05-18 06:32 -
[DIR]mboxgrep/2023-06-07 06:33 -
[DIR]maven-deploy-plugin/2023-06-12 18:47 -
[DIR]myspell.pt/2023-06-13 00:16 -
[DIR]maven-debian-helper/2023-06-14 00:28 -
[DIR]maven-verifier/2023-06-17 18:26 -
[DIR]maven-install-plugin/2023-06-17 23:34 -
[DIR]matlab-support/2023-06-17 23:34 -
[DIR]mle/2023-06-18 17:59 -
[DIR]mailto/2023-06-20 05:59 -
[DIR]mac-fdisk/2023-06-23 03:39 -
[DIR]mate-themes/2023-06-26 18:19 -
[DIR]matrix-synapse-ldap3/2023-06-29 17:34 -
[DIR]most/2023-07-01 06:49 -
[DIR]markdown-toc-el/2023-07-02 05:24 -
[DIR]mail-expire/2023-07-02 12:27 -
[DIR]memo/2023-07-05 02:39 -
[DIR]mkalias/2023-07-08 05:49 -
[DIR]manderlbot/2023-07-10 12:00 -
[DIR]mcstrans/2023-07-10 23:59 -
[DIR]mirrormagic/2023-07-23 18:13 -
[DIR]menu/2023-07-25 10:36 -
[DIR]module-assistant/2023-07-26 09:58 -
[DIR]maven-javadoc-plugin/2023-08-01 05:54 -
[DIR]mccs/2023-08-14 15:23 -
[DIR]mrc/2023-08-15 16:48 -
[DIR]magicgui/2023-08-17 00:29 -
[DIR]makexvpics/2023-08-17 12:28 -
[DIR]meta-ocaml/2023-08-20 09:49 -
[DIR]mistral-tempest-plugin/2023-08-24 00:30 -
[DIR]m2300w/2023-08-25 14:41 -
[DIR]min12xxw/2023-08-25 14:41 -
[DIR]mscompress/2023-08-25 18:14 -
[DIR]mbuffer/2023-08-27 18:37 -
[DIR]meta-unison/2023-09-04 08:10 -
[DIR]murrine-themes/2023-09-08 14:44 -
[DIR]ms-gsl/2023-09-09 12:35 -
[DIR]mdurl/2023-09-13 01:59 -
[DIR]mkchromecast/2023-09-18 17:04 -
[DIR]mate-user-guide/2023-09-27 00:39 -
[DIR]mozjs115/2023-09-29 14:28 -
[DIR]muse-el/2023-10-26 22:11 -
[DIR]msgpack-java/2023-10-26 22:12 -
[DIR]mono-tools/2023-10-26 22:12 -
[DIR]mrb/2023-10-26 22:12 -
[DIR]mp3report/2023-10-26 22:12 -
[DIR]modsecurity-crs/2023-10-26 22:12 -
[DIR]mmm-mode/2023-10-26 22:12 -
[DIR]mkdocs-nature/2023-10-26 22:12 -
[DIR]mkdocs-literate-nav/2023-10-26 22:12 -
[DIR]mkdocs-click/2023-10-26 22:12 -
[DIR]mha4mysql-node/2023-10-26 22:12 -
[DIR]mha4mysql-manager/2023-10-26 22:12 -
[DIR]medicalterms/2023-10-26 22:12 -
[DIR]mailsync/2023-10-28 18:16 -
[DIR]metomi-isodatetime/2023-10-28 18:39 -
[DIR]mdm/2023-10-28 18:39 -
[DIR]mbw/2023-10-28 18:39 -
[DIR]multimon-ng/2023-10-28 19:49 -
[DIR]mmh/2023-10-28 19:49 -
[DIR]mrtg/2023-10-28 19:49 -
[DIR]mpegdemux/2023-10-28 19:49 -
[DIR]mp3info/2023-10-28 19:49 -
[DIR]mts-esp/2023-10-29 07:26 -
[DIR]mcomix/2023-10-31 00:41 -
[DIR]mlgmp/2023-11-02 07:35 -
[DIR]mysql-ocaml/2023-11-02 17:01 -
[DIR]megahit/2023-11-04 23:40 -
[DIR]magnus/2023-11-06 00:09 -
[DIR]mate-menu/2023-11-06 00:09 -
[DIR]meshoptimizer/2023-11-07 07:06 -
[DIR]mecat2/2023-11-08 05:56 -
[DIR]mastodon-el/2023-11-08 05:56 -
[DIR]mimeo/2023-11-14 14:46 -
[DIR]minetest-mod-colour-chat-56-csm/2023-11-15 05:26 -
[DIR]mighttpd2/2023-11-15 07:41 -
[DIR]mscgen/2023-11-15 13:20 -
[DIR]mpl-animators/2023-11-18 17:25 -
[DIR]magit-popup/2023-11-21 17:32 -
[DIR]midge/2023-11-22 17:35 -
[DIR]mvel/2023-11-23 11:44 -
[DIR]mp3guessenc/2023-11-26 23:45 -
[DIR]mdds/2023-11-28 00:09 -
[DIR]maven-shared-incremental/2023-12-02 17:31 -
[DIR]megan-ce/2023-12-03 17:56 -
[DIR]malt/2023-12-03 17:56 -
[DIR]mosdepth/2023-12-06 05:53 -
[DIR]microsoft-authentication-extensions-for-python/2023-12-11 17:23 -
[DIR]mistune/2023-12-12 23:28 -
[DIR]maskprocessor/2023-12-13 00:17 -
[DIR]minimap/2023-12-13 10:23 -
[DIR]metaconfig/2023-12-14 17:37 -
[DIR]muscle3/2023-12-18 00:28 -
[DIR]memtailor/2023-12-19 14:02 -
[DIR]makeself/2023-12-20 00:12 -
[DIR]mbpoll/2023-12-21 05:46 -
[DIR]mathic/2023-12-21 21:30 -
[DIR]mutt-vc-query/2023-12-25 18:11 -
[DIR]mate-tweak/2023-12-26 17:17 -
[DIR]mkdocs-gen-files/2023-12-27 09:36 -
[DIR]mate-submodules/2023-12-27 17:46 -
[DIR]moon-buggy/2023-12-31 17:45 -
[DIR]mailman-hyperkitty/2024-01-09 05:45 -
[DIR]mf2py/2024-01-10 13:26 -
[DIR]mylvmbackup/2024-01-10 19:14 -
[DIR]muscle/2024-01-10 19:14 -
[DIR]musicbrainzngs/2024-01-10 19:14 -
[DIR]mutagen/2024-01-10 19:14 -
[DIR]murano-tempest-plugin/2024-01-10 19:14 -
[DIR]msp430mcu/2024-01-10 19:14 -
[DIR]msort/2024-01-10 19:14 -
[DIR]msktutil/2024-01-10 19:14 -
[DIR]mozjs78/2024-01-10 19:14 -
[DIR]minilla/2024-01-10 19:14 -
[DIR]minetestmapper/2024-01-10 19:14 -
[DIR]milksnake/2024-01-10 19:14 -
[DIR]mgcv/2024-01-10 19:14 -
[DIR]meta-kde-telepathy/2024-01-10 19:14 -
[DIR]maven-artifact-transfer/2024-01-10 19:14 -
[DIR]mariadb-mysql-kbs/2024-01-10 19:14 -
[DIR]mando/2024-01-10 19:14 -
[DIR]mwrap/2024-01-11 01:10 -
[DIR]mrtg-ping-probe/2024-01-11 01:10 -
[DIR]mosh/2024-01-11 01:10 -
[DIR]mopidy/2024-01-11 01:10 -
[DIR]monster-masher/2024-01-11 01:10 -
[DIR]mnormt/2024-01-11 01:10 -
[DIR]mina2/2024-01-11 01:10 -
[DIR]milib/2024-01-11 01:10 -
[DIR]mgitstatus/2024-01-11 01:10 -
[DIR]md-toc/2024-01-11 01:10 -
[DIR]mat2/2024-01-11 01:10 -
[DIR]mariadb-connector-java/2024-01-11 01:10 -
[DIR]manuel/2024-01-11 01:10 -
[DIR]malai/2024-01-11 01:10 -
[DIR]miniupnpd/2024-01-11 06:00 -
[DIR]myspell-pt-br/2024-01-11 07:31 -
[DIR]multcomp/2024-01-11 07:31 -
[DIR]mrrescue/2024-01-11 07:31 -
[DIR]mkdocs-redirects/2024-01-11 07:31 -
[DIR]mg/2024-01-11 07:31 -
[DIR]metalfinder/2024-01-11 07:31 -
[DIR]metaphlan2/2024-01-11 07:31 -
[DIR]metadata-cleaner/2024-01-11 07:31 -
[DIR]materia-kde/2024-01-11 07:31 -
[DIR]markdown-it-py/2024-01-11 07:31 -
[DIR]maint-guide/2024-01-11 07:31 -
[DIR]murano/2024-01-11 13:23 -
[DIR]moment-timezone.js/2024-01-11 13:23 -
[DIR]moka-icon-theme/2024-01-11 13:23 -
[DIR]metaphlan/2024-01-11 13:23 -
[DIR]murano-dashboard/2024-01-11 19:18 -
[DIR]murano-agent/2024-01-11 19:18 -
[DIR]mozillavpn/2024-01-11 19:18 -
[DIR]mate-hud/2024-01-11 19:18 -
[DIR]madison-lite/2024-01-11 23:44 -
[DIR]mir-eval/2024-01-13 01:09 -
[DIR]mkdocs-material-extensions/2024-01-13 01:09 -
[DIR]mkdocstrings-python-legacy/2024-01-13 01:09 -
[DIR]mash/2024-01-13 01:09 -
[DIR]mantis-xray/2024-01-13 01:09 -
[DIR]mmseqs2/2024-01-13 07:20 -
[DIR]meson-python/2024-01-13 07:20 -
[DIR]mes/2024-01-13 07:20 -
[DIR]maradns/2024-01-13 07:20 -
[DIR]minimac4/2024-01-13 13:13 -
[DIR]miniaudio/2024-01-13 13:13 -
[DIR]mapsforge/2024-01-13 19:07 -
[DIR]mutt-wizard/2024-01-14 01:04 -
[DIR]mm-common/2024-01-14 01:04 -
[DIR]minetest-mod-ltool/2024-01-14 01:04 -
[DIR]mathcomp-abel/2024-01-14 01:04 -
[DIR]mricron/2024-01-17 17:30 -
[DIR]m2l-pyqt/2024-01-17 18:56 -
[DIR]m17n-docs/2024-01-19 05:55 -
[DIR]mujoco/2024-01-22 19:36 -
[DIR]manuskript/2024-01-23 01:16 -
[DIR]morty/2024-01-23 07:14 -
[DIR]mockery/2024-01-23 07:14 -
[DIR]mmark/2024-01-23 07:14 -
[DIR]mkcert/2024-01-23 07:14 -
[DIR]minica/2024-01-23 07:14 -
[DIR]mender-cli/2024-01-23 07:14 -
[DIR]madonctl/2024-01-23 07:14 -
[DIR]mmv/2024-01-24 07:11 -
[DIR]markdown-callouts/2024-01-26 12:56 -
[DIR]mariadb-10.6/2024-01-26 18:55 -
[DIR]mariadb-10.3/2024-01-26 18:55 -
[DIR]makedev/2024-01-27 05:24 -
[DIR]minigalaxy/2024-01-28 00:52 -
[DIR]magicfilter/2024-01-28 06:05 -
[DIR]mystic/2024-02-02 08:12 -
[DIR]mptcpd/2024-02-02 18:57 -
[DIR]man2html/2024-02-03 12:55 -
[DIR]mathlibtools/2024-02-04 12:50 -
[DIR]mirtop/2024-02-07 18:51 -
[DIR]mdanalysis/2024-02-08 00:44 -
[DIR]mmllib/2024-02-15 12:30 -
[DIR]microbegps/2024-02-15 12:30 -
[DIR]maven/2024-02-15 12:30 -
[DIR]mail-spf-perl/2024-02-15 12:30 -
[DIR]mina/2024-02-15 13:35 -
[DIR]magic-enum/2024-02-15 14:47 -
[DIR]mautrix-python/2024-02-15 14:47 -
[DIR]mkdocs-macros-plugin/2024-02-15 14:48 -
[DIR]minissdpd/2024-02-15 16:33 -
[DIR]mesa-demos/2024-02-15 16:33 -
[DIR]mininet/2024-02-16 06:49 -
[DIR]mira/2024-02-17 06:54 -
[DIR]mirrorkit/2024-02-17 19:15 -
[DIR]mysql-sandbox/2024-02-17 19:15 -
[DIR]mx44/2024-02-17 19:15 -
[DIR]mi2svg/2024-02-17 19:15 -
[DIR]mod-mono/2024-02-17 19:16 -
[DIR]memchan/2024-02-17 20:02 -
[DIR]mpm-itk/2024-02-17 20:02 -
[DIR]mp3wrap/2024-02-17 20:02 -
[DIR]morse2ascii/2024-02-17 20:02 -
[DIR]members/2024-02-18 06:15 -
[DIR]marsshooter/2024-02-18 19:32 -
[DIR]metro-policy/2024-02-19 02:16 -
[DIR]mbr/2024-02-20 05:44 -
[DIR]mustache-d/2024-02-22 12:50 -
[DIR]mir-core/2024-02-22 12:50 -
[DIR]matomo-device-detector/2024-02-23 23:33 -
[DIR]matomo-php-tracker/2024-02-23 23:33 -
[DIR]modules/2024-02-24 17:53 -
[DIR]matomo-component-ini/2024-02-24 23:23 -
[DIR]menhir/2024-02-25 00:57 -
[DIR]menulibre/2024-02-25 05:58 -
[DIR]multimon/2024-02-25 05:58 -
[DIR]mediawiki2latex/2024-02-25 06:54 -
[DIR]matomo-referrer-spam-list/2024-02-25 06:54 -
[DIR]matomo-searchengine-and-social-list/2024-02-25 06:54 -
[DIR]mysqltuner/2024-02-26 12:47 -
[DIR]markdown-mode/2024-02-27 11:43 -
[DIR]moreutils/2024-02-27 12:45 -
[DIR]mutt-alias-el/2024-02-29 23:34 -
[DIR]muttrc-mode-el/2024-03-01 05:58 -
[DIR]mysql-connector-python/2024-03-02 11:53 -
[DIR]mkdocs-autorefs/2024-03-02 23:43 -
[DIR]mpl-sphinx-theme/2024-03-03 12:43 -
[DIR]multiprocess/2024-03-05 06:52 -
[DIR]mailmindr/2024-03-05 12:48 -
[DIR]mqtt-client/2024-03-07 20:40 -
[DIR]matrix-synapse/2024-03-10 18:40 -
[DIR]multiqc/2024-03-12 18:43 -
[DIR]maxima-sage/2024-03-26 18:44 -
[DIR]matchbox-panel/2024-04-03 07:21 -
[DIR]mupen64plus-qt/2024-04-03 19:19 -
[DIR]minitube/2024-04-03 19:19 -
[DIR]minidjvu/2024-04-03 19:19 -
[DIR]meld/2024-04-03 19:19 -
[DIR]mediawiki/2024-04-03 19:19 -
[DIR]mdnsd/2024-04-03 19:19 -
[DIR]mate-netbook/2024-04-03 19:19 -
[DIR]mandelbulber2/2024-04-03 19:19 -
[DIR]manaplus/2024-04-03 19:19 -
[DIR]mp3check/2024-04-03 21:11 -
[DIR]mupen64plus-video-rice/2024-04-04 01:12 -
[DIR]mupen64plus-core/2024-04-04 01:12 -
[DIR]mgdiff/2024-04-04 01:12 -
[DIR]mate-indicator-applet/2024-04-04 01:12 -
[DIR]mailfront/2024-04-04 01:12 -
[DIR]mate-power-manager/2024-04-04 13:28 -
[DIR]moarvm/2024-04-04 19:15 -
[DIR]miwm/2024-04-04 19:15 -
[DIR]mhddfs/2024-04-04 19:15 -
[DIR]mergerfs/2024-04-04 19:15 -
[DIR]mystiq/2024-04-05 01:26 -
[DIR]mygui/2024-04-05 01:26 -
[DIR]mrmpi/2024-04-05 01:26 -
[DIR]molmodel/2024-04-05 01:26 -
[DIR]metacity/2024-04-05 01:26 -
[DIR]mate-terminal/2024-04-05 01:26 -
[DIR]mate-notification-daemon/2024-04-05 01:26 -
[DIR]magicrescue/2024-04-05 01:26 -
[DIR]m17n-lib/2024-04-05 01:26 -
[DIR]mp3gain/2024-04-05 07:05 -
[DIR]mysql-connector-c++/2024-04-05 07:45 -
[DIR]mvdsv/2024-04-05 07:45 -
[DIR]muchsync/2024-04-05 07:45 -
[DIR]mpop/2024-04-05 07:45 -
[DIR]moosefs/2024-04-05 07:45 -
[DIR]monitoring-plugins/2024-04-05 07:45 -
[DIR]modsecurity-apache/2024-04-05 07:45 -
[DIR]mktorrent/2024-04-05 07:45 -
[DIR]minc-tools/2024-04-05 07:45 -
[DIR]merecat/2024-04-05 07:45 -
[DIR]megadepth/2024-04-05 07:45 -
[DIR]medusa/2024-04-05 07:45 -
[DIR]mailfilter/2024-04-05 07:45 -
[DIR]mpqc/2024-04-05 13:13 -
[DIR]mpdas/2024-04-05 13:13 -
[DIR]midish/2024-04-05 13:13 -
[DIR]madplay/2024-04-05 13:13 -
[DIR]munipack/2024-04-05 19:05 -
[DIR]modemmanager/2024-04-05 23:52 -
[DIR]mysecureshell/2024-04-06 13:48 -
[DIR]mypaint/2024-04-06 13:48 -
[DIR]mydumper/2024-04-06 13:48 -
[DIR]mustang-plug/2024-04-06 13:48 -
[DIR]musescore2/2024-04-06 13:48 -
[DIR]musescore-sftools/2024-04-06 13:48 -
[DIR]muse/2024-04-06 13:48 -
[DIR]mupen64plus-video-glide64mk2/2024-04-06 13:48 -
[DIR]munge/2024-04-06 13:48 -
[DIR]mujs/2024-04-06 13:48 -
[DIR]mu-cade/2024-04-06 13:48 -
[DIR]mtr/2024-04-06 13:48 -
[DIR]mtpaint/2024-04-06 13:48 -
[DIR]mtink/2024-04-06 13:48 -
[DIR]mssh/2024-04-06 13:48 -
[DIR]msopenh264/2024-04-06 13:48 -
[DIR]msmtp/2024-04-06 13:48 -
[DIR]msitools/2024-04-06 13:48 -
[DIR]msi-keyboard/2024-04-06 13:48 -
[DIR]mrtrix3/2024-04-06 13:48 -
[DIR]mrbayes/2024-04-06 13:48 -
[DIR]mpv-mpris/2024-04-06 13:48 -
[DIR]mplinuxman/2024-04-06 13:48 -
[DIR]mpdscribble/2024-04-06 13:48 -
[DIR]mp3splt/2024-04-06 13:48 -
[DIR]mp3diags/2024-04-06 13:48 -
[DIR]motion/2024-04-06 13:48 -
[DIR]morris/2024-04-06 13:48 -
[DIR]motif/2024-04-06 13:48 -
[DIR]morla/2024-04-06 13:48 -
[DIR]mono/2024-04-06 13:48 -
[DIR]mongo-cxx-driver-legacy/2024-04-06 13:48 -
[DIR]monado/2024-04-06 13:48 -
[DIR]mokomaze/2024-04-06 13:48 -
[DIR]modsecurity/2024-04-06 13:48 -
[DIR]modem-manager-gui/2024-04-06 13:48 -
[DIR]moc/2024-04-06 13:48 -
[DIR]mmlib/2024-04-06 13:48 -
[DIR]mjpegtools/2024-04-06 13:48 -
[DIR]minuet/2024-04-06 13:48 -
[DIR]minizinc-ide/2024-04-06 13:48 -
[DIR]ministocks/2024-04-06 13:48 -
[DIR]minisat2/2024-04-06 13:48 -
[DIR]minimodem/2024-04-06 13:48 -
[DIR]minieigen/2024-04-06 13:48 -
[DIR]minidlna/2024-04-06 13:48 -
[DIR]minia/2024-04-06 13:48 -
[DIR]minicoredumper/2024-04-06 13:48 -
[DIR]mindthegap/2024-04-06 13:48 -
[DIR]milter-greylist/2024-04-06 13:48 -
[DIR]milou/2024-04-06 13:48 -
[DIR]midisnoop/2024-04-06 13:48 -
[DIR]microprofile/2024-04-06 13:48 -
[DIR]microcom/2024-04-06 13:48 -
[DIR]mialmpick/2024-04-06 13:48 -
[DIR]mhz/2024-04-06 13:48 -
[DIR]mhwaveedit/2024-04-06 13:48 -
[DIR]mgp/2024-04-06 13:48 -
[DIR]mfgtools/2024-04-06 13:48 -
[DIR]metapixel/2024-04-06 13:48 -
[DIR]meshlab/2024-04-06 13:48 -
[DIR]merkuro/2024-04-06 13:48 -
[DIR]menu-cache/2024-04-06 13:48 -
[DIR]mender-connect/2024-04-06 13:48 -
[DIR]mender-client/2024-04-06 13:48 -
[DIR]megatools/2024-04-06 13:48 -
[DIR]megaglest/2024-04-06 13:48 -
[DIR]mecab/2024-04-06 13:48 -
[DIR]meanwhile/2024-04-06 13:48 -
[DIR]mdk/2024-04-06 13:48 -
[DIR]mcabber/2024-04-06 13:48 -
[DIR]mbox-importer/2024-04-06 13:48 -
[DIR]matekbd-keyboard-display/2024-04-06 13:48 -
[DIR]mathicgb/2024-04-06 13:48 -
[DIR]mate-user-share/2024-04-06 13:48 -
[DIR]mate-session-manager/2024-04-06 13:48 -
[DIR]mate-sensors-applet/2024-04-06 13:48 -
[DIR]mate-screensaver/2024-04-06 13:48 -
[DIR]mate-polkit/2024-04-06 13:48 -
[DIR]mate-media/2024-04-06 13:48 -
[DIR]matchbox-panel-manager/2024-04-06 13:48 -
[DIR]massif-visualizer/2024-04-06 13:48 -
[DIR]markdownpart/2024-04-06 13:48 -
[DIR]maria/2024-04-06 13:48 -
[DIR]mandos/2024-04-06 13:48 -
[DIR]manimpango/2024-04-06 13:48 -
[DIR]maliit-inputcontext-gtk/2024-04-06 13:48 -
[DIR]maim/2024-04-06 13:48 -
[DIR]mailfromd/2024-04-06 13:48 -
[DIR]mah-jong/2024-04-06 13:48 -
[DIR]macsyfinder/2024-04-06 13:48 -
[DIR]macopix/2024-04-06 13:48 -
[DIR]muon-meson/2024-04-06 18:46 -
[DIR]minder/2024-04-06 18:46 -
[DIR]milkytracker/2024-04-06 18:46 -
[DIR]mate-window-applets/2024-04-06 18:46 -
[DIR]mate-utils/2024-04-06 18:46 -
[DIR]mate-control-center/2024-04-06 18:46 -
[DIR]mate-calc/2024-04-06 18:46 -
[DIR]mate-applets/2024-04-06 18:46 -
[DIR]masakari-monitors/2024-04-06 18:46 -
[DIR]matchbox-desktop/2024-04-06 18:46 -
[DIR]marco/2024-04-06 18:46 -
[DIR]magnum-ui/2024-04-06 18:46 -
[DIR]moonshot-trust-router/2024-04-07 12:50 -
[DIR]moonshot-gss-eap/2024-04-07 12:50 -
[DIR]mksh/2024-04-07 12:50 -
[DIR]mistral/2024-04-07 12:50 -
[DIR]meteo-qt/2024-04-07 12:50 -
[DIR]mate-system-monitor/2024-04-07 12:50 -
[DIR]manila-ui/2024-04-07 12:50 -
[DIR]mpg321/2024-04-08 07:02 -
[DIR]mongrel2/2024-04-08 07:02 -
[DIR]mcrypt/2024-04-08 10:16 -
[DIR]multitail/2024-04-08 10:59 -
[DIR]mysql-defaults/2024-04-08 17:02 -
[DIR]musescore3/2024-04-08 18:55 -
[DIR]mudita24/2024-04-08 18:55 -
[DIR]mpv/2024-04-08 18:55 -
[DIR]micropython/2024-04-08 18:55 -
[DIR]meep/2024-04-08 18:55 -
[DIR]meep-openmpi/2024-04-08 18:55 -
[DIR]meep-mpi-default/2024-04-08 18:55 -
[DIR]mediaconch/2024-04-08 18:55 -
[DIR]mdtraj/2024-04-08 18:55 -
[DIR]mate-desktop/2024-04-08 18:55 -
[DIR]mangler/2024-04-08 18:55 -
[DIR]magnum/2024-04-08 18:55 -
[DIR]macs/2024-04-08 18:55 -
[DIR]mesa-amber/2024-04-08 20:09 -
[DIR]mtools/2024-04-08 20:09 -
[DIR]make-dfsg/2024-04-08 20:09 -
[DIR]mancala/2024-04-09 01:38 -
[DIR]mcpp/2024-04-09 08:28 -
[DIR]monero/2024-04-09 12:59 -
[DIR]morse/2024-04-09 18:53 -
[DIR]montage/2024-04-09 18:53 -
[DIR]music/2024-04-10 07:02 -
[DIR]murasaki/2024-04-10 07:02 -
[DIR]mpgrafic/2024-04-10 07:02 -
[DIR]mpdcon.app/2024-04-10 07:02 -
[DIR]mpc/2024-04-10 07:02 -
[DIR]microbiomeutil/2024-04-11 00:20 -
[DIR]multiwatch/2024-04-11 00:50 -
[DIR]mspdebug/2024-04-11 00:50 -
[DIR]moserial/2024-04-11 00:50 -
[DIR]mlterm/2024-04-11 00:50 -
[DIR]metar/2024-04-11 00:50 -
[DIR]memstat/2024-04-11 00:50 -
[DIR]mate-equake-applet/2024-04-11 00:50 -
[DIR]matanza/2024-04-11 00:50 -
[DIR]madwimax/2024-04-11 00:50 -
[DIR]med-fichier/2024-04-11 06:58 -
[DIR]maven-shared-utils/2024-04-11 22:05 -
[DIR]mpi4py-fft/2024-04-12 00:44 -
[DIR]mlpcap/2024-04-12 07:01 -
[DIR]mirage/2024-04-12 18:46 -
[DIR]manila/2024-04-12 18:46 -
[DIR]mysql-shell/2024-04-12 19:03 -
[DIR]mlpy/2024-04-13 06:50 -
[DIR]mixxx/2024-04-13 06:50 -
[DIR]memory-allocator/2024-04-13 06:50 -
[DIR]mcpdisp/2024-04-13 06:50 -
[DIR]mate-user-admin/2024-04-13 06:50 -
[DIR]mate-menus/2024-04-13 06:50 -
[DIR]mrgingham/2024-04-14 12:45 -
[DIR]moonshot-ui/2024-04-14 12:45 -
[DIR]mediascanner2/2024-04-14 12:45 -
[DIR]maildrop/2024-04-14 12:45 -
[DIR]mimetic/2024-04-14 18:42 -
[DIR]maliit-framework/2024-04-15 00:45 -
[DIR]mrtdreader/2024-04-15 06:49 -
[DIR]mongo-c-driver/2024-04-15 06:49 -
[DIR]macutils/2024-04-15 17:18 -
[DIR]mpsolve/2024-04-15 18:45 -
[DIR]mbedtls/2024-04-15 18:45 -
[DIR]mopidy-dleyna/2024-04-16 05:34 -
[DIR]myproxy/2024-04-16 06:59 -
[DIR]mupdf/2024-04-16 18:55 -
[DIR]mdk4/2024-04-16 18:55 -
[DIR]mailnag/2024-04-16 23:38 -
[DIR]mosquitto/2024-04-17 00:55 -
[DIR]miniupnpc/2024-04-17 00:55 -
[DIR]molequeue/2024-04-17 12:57 -
[DIR]mysql++/2024-04-17 18:53 -
[DIR]msc-generator/2024-04-17 18:53 -
[DIR]molly-brown/2024-04-18 07:02 -
[DIR]movit/2024-04-18 22:27 -
[DIR]md4c/2024-04-18 22:27 -
[DIR]mpeg2dec/2024-04-18 22:27 -
[DIR]meta-gnome3/2024-04-18 22:27 -
[DIR]mxml/2024-04-18 22:27 -
[DIR]mumps/2024-04-19 12:51 -
[DIR]meterbridge/2024-04-20 00:50 -
[DIR]mda-lv2/2024-04-20 00:50 -
[DIR]mcp-plugins/2024-04-20 00:50 -
[DIR]msp430-libc/2024-04-21 18:42 -
[DIR]mseed2sac/2024-04-21 22:58 -
[DIR]meta-phosh/2024-04-22 06:55 -
[DIR]mcpl/2024-04-22 10:51 -
[DIR]metrohash/2024-04-22 10:51 -
[DIR]memkind/2024-04-22 11:49 -
[DIR]metis/2024-04-22 11:49 -
[DIR]mate-dock-applet/2024-04-22 12:45 -
[DIR]mrpt/2024-04-22 18:53 -
[DIR]magpie/2024-04-23 18:54 -
[DIR]magics-python/2024-04-24 01:08 -
[DIR]mpi-defaults/2024-04-24 07:03 -
[DIR]mdbtools/2024-04-24 12:57 -
[DIR]mayavi2/2024-05-03 01:51 -
[DIR]magic-wormhole/2024-05-03 01:51 -
[DIR]manpages-l10n/2024-05-03 03:28 -
[DIR]magics++/2024-05-03 03:29 -
[DIR]mpmath/2024-05-03 03:29 -
[DIR]mwic/2024-05-03 03:29 -
[DIR]mycli/2024-05-03 03:29 -
[DIR]mwclient/2024-05-03 03:29 -
[DIR]mssql-django/2024-05-03 03:29 -
[DIR]mplcursors/2024-05-03 03:29 -
[DIR]mrename/2024-05-03 03:29 -
[DIR]mrbuild/2024-05-03 03:29 -
[DIR]mistral-dashboard/2024-05-03 03:29 -
[DIR]mpfrc++/2024-05-03 03:29 -
[DIR]mochiweb/2024-05-03 03:29 -
[DIR]mp3roaster/2024-05-03 03:29 -
[DIR]mom/2024-05-03 03:29 -
[DIR]mpd-sima/2024-05-03 03:29 -
[DIR]mockldap/2024-05-03 03:29 -
[DIR]mp3burn/2024-05-03 03:29 -
[DIR]metakernel/2024-05-03 03:29 -
[DIR]modernizr/2024-05-03 03:29 -
[DIR]mkdocs-section-index/2024-05-03 03:29 -
[DIR]molly-guard/2024-05-03 03:29 -
[DIR]mkgmap/2024-05-03 03:29 -
[DIR]mkgmap-splitter/2024-05-03 03:29 -
[DIR]mkautodoc/2024-05-03 03:29 -
[DIR]mintstick/2024-05-03 03:29 -
[DIR]minidb/2024-05-03 03:29 -
[DIR]microsoft-authentication-library-for-python/2024-05-03 03:29 -
[DIR]mhonarc/2024-05-03 03:29 -
[DIR]maven-bundle-plugin/2024-05-03 03:29 -
[DIR]matthiasmullie-minify/2024-05-03 03:29 -
[DIR]masakari-dashboard/2024-05-03 03:29 -
[DIR]manila-tempest-plugin/2024-05-03 03:29 -
[DIR]marginalia/2024-05-03 03:29 -
[DIR]mailscripts/2024-05-03 03:29 -
[DIR]magit-forge-el/2024-05-03 03:29 -
[DIR]magnum-tempest-plugin/2024-05-03 03:29 -
[DIR]mailman-suite/2024-05-03 03:29 -
[DIR]magit-todos/2024-05-03 03:29 -
[DIR]magic-wormhole-mailbox-server/2024-05-03 03:29 -
[DIR]magit/2024-05-03 05:21 -
[DIR]mkdocstrings-python-handlers/2024-05-03 05:21 -
[DIR]mdp/2024-05-03 17:40 -
[DIR]metpy/2024-05-03 17:40 -
[DIR]mdformat/2024-05-03 17:40 -
[DIR]mapbox-geometry/2024-05-03 18:27 -
[DIR]mkdocs-material/2024-05-03 19:33 -
[DIR]magnum-cluster-api/2024-05-03 19:33 -
[DIR]mapbox-polylabel/2024-05-03 20:33 -
[DIR]myst-parser/2024-05-04 06:49 -
[DIR]mobian-keyring/2024-05-04 18:04 -
[DIR]mm3d/2024-05-05 13:08 -
[DIR]mac-widgets/2024-05-06 11:59 -
[DIR]macromoleculebuilder/2024-05-06 15:24 -
[DIR]metaeuk/2024-05-06 15:24 -
[DIR]maude/2024-05-06 17:11 -
[DIR]mmc-utils/2024-05-06 20:08 -
[DIR]munin/2024-05-07 23:53 -
[DIR]mod-dnssd/2024-05-09 07:34 -
[DIR]mtail/2024-05-09 07:34 -
[DIR]micro-httpd/2024-05-09 07:34 -
[DIR]mini-httpd/2024-05-09 07:34 -
[DIR]mypy/2024-05-09 09:09 -
[DIR]mtdev/2024-05-09 10:40 -
[DIR]minetest-mod-pycraft/2024-05-09 12:20 -
[DIR]mtbl/2024-05-09 13:19 -
[DIR]minizinc/2024-05-09 13:19 -
[DIR]mpt-status/2024-05-09 13:19 -
[DIR]mousepad/2024-05-09 13:19 -
[DIR]muffin/2024-05-09 13:19 -
[DIR]mymake/2024-05-09 13:19 -
[DIR]mlt/2024-05-09 13:19 -
[DIR]mazeofgalious/2024-05-09 13:19 -
[DIR]mruby/2024-05-09 13:19 -
[DIR]mwparserfromhell/2024-05-09 13:19 -
[DIR]minimap2/2024-05-09 13:19 -
[DIR]mpb/2024-05-09 13:19 -
[DIR]muparser/2024-05-09 13:19 -
[DIR]morph-browser/2024-05-09 13:19 -
[DIR]mtree-netbsd/2024-05-09 13:19 -
[DIR]musl/2024-05-09 13:19 -
[DIR]mangohud/2024-05-09 13:19 -
[DIR]mirrorbits/2024-05-09 13:19 -
[DIR]mojoshader/2024-05-09 13:19 -
[DIR]mmsd-tng/2024-05-09 13:19 -
[DIR]monopd/2024-05-09 13:19 -
[DIR]miller/2024-05-09 13:19 -
[DIR]mednafen/2024-05-09 13:19 -
[DIR]mod-mime-xattr/2024-05-09 13:19 -
[DIR]metalang99/2024-05-09 13:19 -
[DIR]mimedefang/2024-05-09 13:19 -
[DIR]mingetty/2024-05-09 13:19 -
[DIR]mediastreamer2/2024-05-09 13:19 -
[DIR]microdc2/2024-05-09 13:19 -
[DIR]mdns-reflector/2024-05-09 13:19 -
[DIR]mesaflash/2024-05-09 13:19 -
[DIR]mc/2024-05-09 13:19 -
[DIR]maffilter/2024-05-09 13:19 -
[DIR]mednaffe/2024-05-09 13:19 -
[DIR]mathtex/2024-05-09 13:19 -
[DIR]martchus-cpp-utilities/2024-05-09 13:19 -
[DIR]make-dynpart-mappings/2024-05-09 13:19 -
[DIR]mailtextbody/2024-05-09 13:19 -
[DIR]mailio/2024-05-09 13:19 -
[DIR]mactelnet/2024-05-09 13:19 -
[DIR]m4api/2024-05-09 13:19 -
[DIR]mozjs102/2024-05-09 14:10 -
[DIR]mathgl/2024-05-09 14:10 -
[DIR]msgpack-cxx/2024-05-09 14:10 -
[DIR]minicom/2024-05-09 16:00 -
[DIR]metastore/2024-05-09 16:00 -
[DIR]mir/2024-05-09 16:01 -
[DIR]martchus-qtutilities/2024-05-10 02:10 -
[DIR]martchus-qtforkawesome/2024-05-10 04:49 -
[DIR]mpi4py/2024-05-10 06:59 -
[DIR]mwoauth/2024-05-10 18:21 -
[DIR]music123/2024-05-10 23:52 -
[DIR]megactl/2024-05-11 06:54 -
[DIR]micro/2024-05-11 12:29 -
[DIR]mbtserver/2024-05-12 18:46 -
[DIR]mbt/2024-05-12 18:46 -
[DIR]magicmaze/2024-05-13 18:50 -
[DIR]mistune0/2024-05-13 23:59 -
[DIR]mopac/2024-05-14 03:43 -
[DIR]mescc-tools/2024-05-14 03:44 -
[DIR]myst-nb/2024-05-14 06:59 -
[DIR]modemmanager-qt/2024-05-14 07:00 -
[DIR]msolve/2024-05-14 10:22 -
[DIR]mpg123/2024-05-14 17:19 -
[DIR]meshsdfilter/2024-05-15 06:56 -
[DIR]mintpy/2024-05-16 06:56 -
[DIR]magic-haskell/2024-05-16 11:44 -
[DIR]mako-notifier/2024-05-16 16:29 -
[DIR]missingh/2024-05-16 17:17 -
[DIR]moon-lander/2024-05-16 17:17 -
[DIR]mdit-py-plugins/2024-05-17 12:00 -
[DIR]mcl14/2024-05-17 18:44 -
[DIR]mrcal/2024-05-18 06:49 -
[DIR]mrboom/2024-05-19 20:03 -
[DIR]m1n1/2024-05-20 00:46 -
[DIR]mmake/2024-05-20 17:44 -
[DIR]mumble/2024-05-22 18:51 -
[DIR]megapixels/2024-05-22 18:58 -
[DIR]maloc/2024-05-22 18:58 -
[DIR]mini-dinstall/2024-05-23 05:43 -
[DIR]mariadb-connector-python/2024-05-23 15:50 -
[DIR]mkcal/2024-05-23 15:50 -
[DIR]mapclassify/2024-05-23 17:30 -
[DIR]mercurial-evolve/2024-05-24 06:56 -
[DIR]mapnik/2024-05-24 11:40 -
[DIR]merkaartor/2024-05-24 12:40 -
[DIR]mapcache/2024-05-24 12:40 -
[DIR]mt-st/2024-05-25 05:59 -
[DIR]mbpfan/2024-05-25 05:59 -
[DIR]mgetty/2024-05-25 06:49 -
[DIR]mvtnorm/2024-05-25 12:03 -
[DIR]modernize/2024-05-25 17:53 -
[DIR]meta-kde/2024-05-25 18:45 -
[DIR]marble/2024-05-26 00:45 -
[DIR]mu-editor/2024-05-27 06:15 -
[DIR]mailgraph/2024-05-27 06:15 -
[DIR]monitorix/2024-05-27 06:15 -
[DIR]mtpolicyd/2024-05-27 06:15 -
[DIR]mtkbabel/2024-05-27 06:15 -
[DIR]mpich/2024-05-27 12:35 -
[DIR]maliit-keyboard/2024-05-27 13:24 -
[DIR]mshr/2024-05-28 01:39 -
[DIR]metview/2024-05-29 11:24 -
[DIR]mobile-tweaks/2024-05-29 12:14 -
[DIR]markdown-exec/2024-05-29 12:58 -
[DIR]mpfi/2024-05-29 14:04 -
[DIR]mueller/2024-05-29 18:52 -
[DIR]meta-plasma-mobile/2024-05-29 18:52 -
[DIR]mkdocstrings/2024-05-30 06:57 -
[DIR]mimalloc/2024-05-30 12:51 -
[DIR]mercurial/2024-05-30 20:13 -
[DIR]mlpack/2024-05-31 06:25 -
[DIR]madlib/2024-05-31 07:14 -
[DIR]matlab-mode/2024-05-31 12:56 -
[DIR]msgraph/2024-06-01 00:46 -
[DIR]monty/2024-06-01 00:46 -
[DIR]meson/2024-06-01 20:08 -
[DIR]mate-panel/2024-06-02 00:46 -
[DIR]multimail/2024-06-02 17:57 -
[DIR]minexpert2/2024-06-02 18:43 -
[DIR]mothur/2024-06-02 19:17 -
[DIR]matchbox-keyboard/2024-06-03 00:05 -
[DIR]massxpert2/2024-06-03 00:46 -
[DIR]macaulay2/2024-06-03 00:46 -
[DIR]mint-y-icons/2024-06-03 00:48 -
[DIR]mlpost/2024-06-04 00:33 -
[DIR]mkvtoolnix/2024-06-04 06:50 -
[DIR]mini-buildd/2024-06-04 06:50 -
[DIR]mp4h/2024-06-04 12:23 -
[DIR]miniramfs/2024-06-04 15:18 -
[DIR]matplotlib/2024-06-04 17:58 -
[DIR]monitoring-plugins-check-smart/2024-06-04 18:43 -
[DIR]mozc/2024-06-05 00:38 -
[DIR]mingw-w64/2024-06-05 00:43 -
[DIR]mame/2024-06-05 02:37 -
[DIR]mstflint/2024-06-05 09:28 -
[DIR]mapproxy/2024-06-05 12:14 -
[DIR]malcontent/2024-06-05 21:43 -
[DIR]marisa/2024-06-06 00:29 -
[DIR]msgpack-c/2024-06-06 00:45 -
[DIR]miniflux/2024-06-06 18:45 -
[DIR]mfem/2024-06-07 00:47 -
[DIR]mgba/2024-06-07 00:49 -
[DIR]maildir-utils/2024-06-07 06:51 -
[DIR]mplayer/2024-06-08 12:46 -
[DIR]mia/2024-06-08 13:52 -
[DIR]memlockd/2024-06-09 06:28 -
[DIR]maxima/2024-06-09 06:50 -
[DIR]minetest/2024-06-09 12:43 -
[DIR]mailutils/2024-06-09 19:03 -
[DIR]minetest-mod-nether/2024-06-10 11:43 -
[DIR]mccode/2024-06-10 12:49 -
[DIR]mediainfo/2024-06-10 18:49 -
[DIR]monit/2024-06-12 00:47 -
[DIR]mysql-8.0/2024-06-12 18:49 -
[DIR]mesa/2024-06-13 00:46 -
[DIR]mate-settings-daemon/2024-06-13 13:02 -
[DIR]mariadb/2024-06-13 14:49 -
[DIR]metview-python/2024-06-13 18:04 -
[DIR]mapserver/2024-06-13 18:51 -
[DIR]mmdebstrap/2024-06-14 00:49 -
[DIR]mkosi/2024-06-14 00:49 -
[DIR]m2crypto/2024-06-14 16:00 -
[DIR]mutter/2024-06-14 18:50 -
[DIR]mailman3/2024-06-14 23:30 -
[DIR]metkit/2024-06-15 00:48 -
[DIR]mpd/2024-06-15 01:08 -
[DIR]mythtv-status/2024-06-15 17:33 -
[DIR]mold/2024-06-15 18:43 -
[DIR]mathcomp-analysis/2024-06-16 05:04 -
[DIR]mathcomp-zify/2024-06-16 06:44 -
[DIR]mathcomp-finmap/2024-06-16 06:44 -
[DIR]mathcomp-bigenough/2024-06-16 06:44 -
[DIR]morsmall/2024-06-16 06:54 -
[DIR]morbig/2024-06-16 06:54 -
[DIR]mathcomp-multinomials/2024-06-16 08:18 -
[DIR]mathcomp-algebra-tactics/2024-06-16 08:18 -
[DIR]mathcomp-real-closed/2024-06-16 09:03 -

Apache/2.4.52 (Ubuntu) Server at gb.archive.ubuntu.com Port 80